This is the latest recevied weather packets stored in our database for station/object N1ORT. If no packets are shown the sender has not sent any weather packets the latest 10 day(s).
| Time | Temp. | Humidity | Pressure | Rain* | Wind** | Luminosity | Snow |
|---|---|---|---|---|---|---|---|
| 1777881339 | 5.56° C | 72% | 1008.4 hPa | 0 mm | - | 0 W/m² | - |
| 1777881036 | 5.56° C | 70% | 1008.3 hPa | 0 mm | - | 0 W/m² | - |
| 1777880734 | 6.11° C | 67% | 1008.1 hPa | 0 mm | - | 0 W/m² | - |
| 1777880432 | 5.56° C | 71% | 1008.2 hPa | 0 mm | - | 0 W/m² | - |
| 1777880130 | 5.56° C | 70% | 1008.5 hPa | 0 mm | - | 0 W/m² | - |
| 1777879828 | 5.56° C | 70% | 1008.2 hPa | 0 mm | - | 0 W/m² | - |
| 1777879526 | 5.56° C | 70% | 1008.1 hPa | 0 mm | - | 0 W/m² | - |
| 1777879222 | 5.56° C | 71% | 1008.1 hPa | 0 mm | - | 0 W/m² | - |
| 1777878919 | 5.56° C | 70% | 1008.2 hPa | 0 mm | - | 0 W/m² | - |
| 1777878616 | 5.56° C | 71% | 1008.1 hPa | 0 mm | - | 0 W/m² | - |
| 1777878314 | 5.56° C | 73% | 1008.2 hPa | 0 mm | - | 0 W/m² | - |
| 1777878009 | 5.56° C | 71% | 1008.2 hPa | 0 mm | - | 0 W/m² | - |
| 1777877705 | 5.56° C | 74% | 1008.2 hPa | 0 mm | - | 0 W/m² | - |
| 1777877403 | 5° C | 72% | 1008.1 hPa | 0 mm | - | 0 W/m² | - |
| 1777877100 | 5° C | 75% | 1008.2 hPa | 0 mm | - | 0 W/m² | - |
| 1777876797 | 5° C | 75% | 1008.1 hPa | 0 mm | - | 0 W/m² | - |
| 1777876495 | 5° C | 70% | 1008.1 hPa | 0 mm | - | 0 W/m² | - |
| 1777876190 | 5° C | 72% | 1007.8 hPa | 0 mm | - | 0 W/m² | - |
| 1777875887 | 5° C | 69% | 1008 hPa | 0 mm | - | 0 W/m² | - |
| 1777875583 | 5° C | 73% | 1008.1 hPa | 0 mm | - | 0 W/m² | - |
| 1777875280 | 4.44° C | 76% | 1008.1 hPa | 0 mm | - | 0 W/m² | - |
| 1777874977 | 4.44° C | 77% | 1008.3 hPa | 0 mm | - | 0 W/m² | - |
| 1777874673 | 4.44° C | 76% | 1008.2 hPa | 0 mm | - | 0 W/m² | - |
| 1777874370 | 4.44° C | 76% | 1008.2 hPa | 0 mm | - | 0 W/m² | - |
| 1777874068 | 3.89° C | 78% | 1008.4 hPa | 0 mm | - | 0 W/m² | - |
* Rain latest hour (hover to see other rain measurements)
** Current wind speed in m/s (hover to see current wind gust speed)